This demonstration page uses our WeatherBlox Daily Observations layout. Learn more.

Left ArrowRight Arrow

44.8408, -93.29828

Hourly Observations for July 22, 2022

Temp ( °F °C ) Dew Point ( °F °C ) Humidity (%) Winds ( mph kmh ) Pressure ( in mb ) Visibility ( mi km ) Precip ( " mm )
12:53 am 00:53 Partly Cloudy 75 23.9 58 14.4 55 55 SSW 6 9 29.82 1010 10 16 0.00 0.00
1:53 am 01:53 Partly Cloudy 73 22.8 59 15 62 62 SW 3 6 29.83 1010 10 16 0.00 0.00
2:53 am 02:53 Partly Cloudy 74 23.3 58 14.4 57 57 WSW 6 9 29.82 1010 10 16 0.00 0.00
3:53 am 03:53 Mostly Cloudy 74 23.3 57 13.9 56 56 W 10 17 29.83 1010 10 16 0.00 0.00
4:53 am 04:53 Mostly Cloudy 76 24.4 56 13.3 50 50 WSW 17 28 29.83 1010 10 16 0.00 0.00
5:53 am 05:53 Mostly Cloudy 75 23.9 57 13.9 54 54 WSW 10 17 29.84 1010 10 16 0.00 0.00
6:53 am 06:53 Mostly Cloudy 75 23.9 57 13.9 54 54 W 7 11 29.85 1011 10 16 0.00 0.00
7:53 am 07:53 Mostly Cloudy 77 25 57 13.9 50 50 SW 7 11 29.85 1011 10 16 0.00 0.00
8:53 am 08:53 Mostly Sunny 81 27.2 57 13.9 44 44 VRB 3 6 29.85 1011 10 16 0.00 0.00
9:53 am 09:53 Mostly Sunny 83 28.3 58 14.4 43 43 NW 6 9 29.85 1011 10 16 0.00 0.00
10:53 am 10:53 Partly Cloudy 87 30.6 57 13.9 36 36 WNW 9 15 29.86 1011 10 16 0.00 0.00
11:53 am 11:53 Mostly Cloudy 89 31.7 56 13.3 33 33 WNW 10 17 29.85 1011 10 16 0.00 0.00
12:53 pm 12:53 Mostly Cloudy 88 31.1 56 13.3 34 34 WSW 7 11 29.84 1010 10 16 0.00 0.00
1:53 pm 13:53 Partly Cloudy 90 32.2 56 13.3 32 32 W 13 20 29.82 1010 10 16 0.00 0.00
2:53 pm 14:53 Mostly Sunny 91 32.8 58 14.4 33 33 SW 8 13 29.82 1010 10 16 0.00 0.00
3:53 pm 15:53 Mostly Sunny 93 33.9 60 15.6 33 33 W 14 22 29.80 1009 10 16 0.00 0.00
4:53 pm 16:53 Partly Cloudy 91 32.8 61 16.1 37 37 W 10 17 29.80 1009 10 16 0.00 0.00
5:53 pm 17:53 Partly Cloudy 92 33.3 62 16.7 37 37 NW 8 13 29.80 1009 10 16 0.00 0.00
6:53 pm 18:53 Partly Cloudy 91 32.8 61 16.1 37 37 W 7 11 29.80 1009 10 16 0.00 0.00
7:53 pm 19:53 Partly Cloudy 89 31.7 62 16.7 41 41 W 7 11 29.81 1009 10 16 0.00 0.00
8:53 pm 20:53 Mostly Clear 87 30.6 62 16.7 43 43 W 6 9 29.82 1010 10 16 0.00 0.00
9:53 pm 21:53 Mostly Clear 84 28.9 64 17.8 51 51 NW 3 6 29.84 1010 10 16 0.00 0.00
10:53 pm 22:53 Mostly Clear 82 27.8 64 17.8 55 55 NNW 5 7 29.84 1011 10 16 0.00 0.00
11:53 pm 23:53 Mostly Clear 81 27.2 65 18.3 58 58 Calm 29.83 1010 10 16 0.00 0.00

Powered by AerisWeather